EST,Max TemperatureF,Mean TemperatureF,Min TemperatureF,Max Dew PointF,MeanDew PointF,Min DewpointF,Max Humidity, Mean Humidity, Min Humidity, Max Sea Level PressureIn, Mean Sea Level PressureIn, Min Sea Level PressureIn, Max VisibilityMiles, Mean VisibilityMiles, Min VisibilityMiles, Max Wind SpeedMPH, Mean Wind SpeedMPH, Max Gust SpeedMPH,PrecipitationIn, CloudCover, Events, WindDirDegrees
2013-1-1,34,25,15,25,13,1,70,53,39,29.95,29.81,29.71,10,10,6,36,8,46,0.00,3,,315
2013-1-2,26,16,5,18,4,-9,76,59,46,30.13,29.99,29.89,10,10,2,18,7,33,0.00,2,Snow,282
2013-1-3,22,10,-2,5,-4,-10,77,53,28,30.16,30.09,30.00,10,10,10,13,6,92,0.00,1,,324
2013-1-4,36,21,6,20,14,1,84,63,48,29.98,29.89,29.81,10,10,10,12,7,20,0.00,3,,235
2013-1-5,38,26,15,21,17,10,81,59,38,30.27,30.11,29.84,10,10,10,20,17,26,0.00,2,,310
2013-1-6,39,28,18,26,22,13,89,76,56,30.24,30.05,29.95,10,9,2,12,8,22,0.07,2,,261
2013-1-7,34,24,13,23,16,8,93,71,37,30.40,30.25,29.98,10,10,9,25,9,26,0.00,1,,327
2013-1-8,43,26,10,24,17,5,85,71,42,30.38,30.33,30.27,10,10,9,7,3,,0.07,0,,196
2013-1-9,43,30,16,32,23,12,89,74,46,30.42,30.24,30.00,10,9,6,4,1,,0.02,1,Rain,300
2013-1-10,45,38,28,27,22,21,75,50,39,30.57,30.33,30.04,10,10,10,26,16,41,0.00,0,,324
2013-1-11,37,30,22,32,27,18,96,85,60,30.54,30.36,30.23,10,7,1,0,0,,0.16,4,Rain,-1
2013-1-12,38,35,32,38,34,32,100,95,93,30.23,30.18,30.14,3,1,0,0,0,,0.02,3,Fog-Rain,-1
2013-1-13,48,40,33,47,39,33,100,96,90,30.17,30.09,29.98,10,2,0,5,1,,0.01,7,Fog,160
2013-1-14,59,48,38,47,39,24,100,83,46,30.28,30.01,29.88,10,6,0,15,5,23,0.00,4,Fog,280
2013-1-15,37,33,29,26,25,23,85,73,57,30.30,30.27,30.25,10,10,10,0,0,,0.00,1,,-1
2013-1-16,32,30,28,31,28,24,100,92,75,31.00,30.27,29.82,10,4,0,7,2,,0.00,6,Fog-Rain-Snow,14
2013-1-17,41,31,21,30,22,6,96,75,39,30.87,30.55,29.85,10,8,0,17,7,24,0.27,1,Fog,321
2013-1-18,26,20,13,4,-3,-8,62,39,25,31.15,30.15,28.20,10,10,10,18,9,28,0.00,2,,324
2013-1-19,43,32,20,28,18,5,85,53,40,31.12,30.84,30.61,10,10,10,14,5,24,0.06,2,,210
2013-1-20,50,40,27,29,21,6,68,50,36,30.68,30.47,30.27,10,10,10,17,8,32,0.00,2,,284
2013-1-21,26,22,18,19,10,-3,93,63,33,30.85,30.51,29.82,10,8,2,18,7,30,0.00,4,,289
2013-1-22,23,17,10,18,7,-6,93,65,33,30.85,30.51,29.77,10,10,9,18,5,28,0.00,3,,302
2013-1-23,13,8,3,-5,-13,-16,56,39,26,30.93,30.89,30.84,10,10,10,18,7,30,0.00,0,,297
2013-1-24,18,9,0,-12,-14,-16,57,36,25,31.01,30.91,30.85,10,10,10,28,10,37,0.00,0,,316
2013-1-25,20,14,7,8,-9,-13,70,37,23,31.10,30.95,30.07,10,10,4,20,10,32,0.00,1,Snow,315
2013-1-26,22,16,10,9,-1,-10,84,52,25,31.01,30.78,30.05,10,10,4,26,7,31,0.00,0,Snow,331
2013-1-27,28,19,10,2,-2,-7,67,43,24,31.15,29.24,28.21,10,10,10,17,9,24,0.00,0,,311
2013-1-28,28,20,13,21,14,1,93,73,40,31.15,29.92,28.23,10,6,0,7,2,,0.00,5,Fog-Snow,49
2013-1-29,32,26,19,31,24,18,93,87,76,30.97,30.54,30.04,10,7,2,6,3,,0.00,6,Rain,348
2013-1-30,56,44,32,54,38,30,100,95,87,30.89,30.13,29.44,10,2,0,8,2,,0.29,6,Fog-Rain,134
2013-1-31,60,45,29,57,38,12,96,69,36,30.31,29.71,28.97,10,7,0,31,13,46,0.53,5,Rain,238